AMOS-3 (32794 NORAD) Tracking and Keplerian Element Data

This shows tracking and keplerian element data for the satellite.

Feedback or suggestion? Click here.




ElementValue
Catalog32794
NameAMOS-3
Epoch Orbit7733
Epoch Day34.7542077
Epoch Year2025
RAAN265.2006
Inclination0.0512
Eccentricity0.0003323
Argument of Perigee28.1946
Mean Anonmoly108.1325
Mean Motion1.00272063
Decay Rate-3.1E-07
L11 32794U 08022A 25034.75420770 -.00000031 00000+0 00000+0 0 9996
L22 32794 0.0512 265.2006 0003323 28.1946 108.1325 1.00272063 77338



Live tracking and technical data element details for AMOS-3 (NORAD 32794). AMOS-3 can be tracked NOW for your location showing map with azimuth and elevation plus other details from your city location.







IsCatalogInMostPopularTable: catalog: 32794, numindb: 309
Update: records affected: 1



GetName: 32794 AMOS-3

Hit Count: updated at: Fri, 16 May 2025 11:46:47 GMT